Location: Betra
(48.4113°N, 8.6634°E)
Time: 20:58:22
(UTC+00:00)

Cosmos 676 Rocket - Pass Details

Date: 23 May 2024
Orbit: 752 x 782 km, 74.0° (Epoch: 16 June)

Event Time Altitude Azimuth Distance (km) Brightness Sun altitude
Exits shadow 00:42:50 35° 199° (SSW) 1,240 4.5 -18.6°
Maximum altitude 00:45:09 87° 114° (ESE) 789 4.0 -18.5°
Drops below altitude 10° 00:50:31 10° 23° (NNE) 2,348 7.8 -18.2°
Sets 00:52:55 0° 24° (NNE) 3,280 9.0 -18.0°
